Showing default

QIANFAN-49, 62250

Orbit data source: Space-Track

QIANFAN-49, 62250 is a Chinese payload satellite in LEO that was launched on Thu, 05 Dec 2024 UTC via a CHANG ZHENG 6A launch vehicle from the Taiyaun Space Center, China (TSC). Payload-class satellites include a variety of spacecraft equipped with specific instruments for various scientific and technological missions. These include communications satellites like Starlink; space stations such as the ISS; scientific satellites like the Hubble; Earth observation satellites from companies like Planet Labs, Umbra, and HawkEye 360; GPS; miniature CubeSats for education and research; and military/defense satellites.

Loading next visibility...
Identifier
62250, 2024-232P
Orbit
LEO
Country
Flag of CNCN / PRC
Related business
Manufacturer
SECM
Mission
Operational Commercial Communications
Bus & Motor
QIANFAN, Unknown motor
Mass
267 kg wet, ~267 kg dry
Launch date (UTC)
2024-12-05 (2 years ago)
Launch vehicle
CHANG ZHENG 6A
Launch site
Taiyaun Space Center, China (TSC)
Object type
Payload
Rocket body
Debris
Shape & HBR
Box + 1 Pan, 5.0 m
Radar Cross Section
13.200 m², Large (>1 m²)

Expand to show TLE details & history
Last TLE update: 9 hours ago

TLE from 9 hours ago
0 QIANFAN-49
1 62250U 24232P   26246.83774078  .00000087  00000-0  11659-3 0  9992
2 62250  89.0142  14.6216 0015555 144.1468 216.0731 13.51028087103638
Epoch: 2026-09-03T20:06Z
TLE epoch observation values (Epoch: 2026-09-03T20:06:20.803Z)
Latitude
0.00005°
Longitude
90.06474°
Altitude
1,080.802 km
Speed
7.307 km/s
True Right ascension
00h 58m 29s
True Declination
0° 00' 00"
Sunlit
Object was in full shadow at epoch
Visualization orbit readout
Latitude
Unknown
Longitude
Unknown
Altitude
Unknown
Speed
Unknown
Apparent Right ascension
Unknown
Apparent Declination
Unknown
Sunlit
N/A
Visualization observer readout
Local Sidereal Time
21:06:13
Azimuth
Unknown
Elevation
Unknown
Doppler factor
Unknown
Orbital elements
Apogee altitude
1,077.108 km
Perigee altitude
1,053.951 km
Semi-major axis
7,443.666 km
Eccentricity
0.00156
Inclination
89.0142°
RAAN
14.6216°
Arg. of periapsis
144.1468°
True anomaly
215.96831°
Mean anomaly
216.0731°
Eccentric anomaly
216.02069°
Mean motion
3.37958 °/min
Orbital period
106.52 mins
BSTAR
0.00011659
Loading maneuver chart data...
Computing Atmospheric mass density...
Loading historical data...
Loading historical data...
Loading historical data...
Loading historical data...
Loading historical data...
Loading historical data...
Loading historical data...

Documentation

Showing up to 5 results
|